Location: Rounton
(54.4000°N, 1.3500°W)
Time: 14:33:09
(UTC+00:00)

Transit 2A - Pass Details

Date: 03 December 2021
Orbit: 591 x 967 km, 66.7° (Epoch: 17 January)

Event Time Altitude Azimuth Distance (km) Brightness Sun altitude
Rises 04:22:54 0° 286° (WNW) 3,526 - -31.2°
Reaches altitude 10° 04:25:47 10° 298° (WNW) 2,632 - -30.7°
Maximum altitude 04:30:59 27° 355° (N) 1,751 - -30.0°
Exits shadow 04:31:01 27° 356° (N) 1,752 7.8 -30.0°
Drops below altitude 10° 04:36:21 10° 52° (NE) 2,716 9.5 -29.2°
Sets 04:39:23 0° 64° (ENE) 3,660 10.5 -28.8°
